PAL359 ZBAA-RPLL

Flight info

Callsign PAL359
Flight time N/A
Altitude 35100
Route RUSDO9Z RUSDO W45 IPLEV B458 DADGA/K0837S1040 W37 KILUD/K0839S1100 W37 GUSIV/K0845S1070 W37 PEXID/K0846S1100 W37 OMBEB/K0839S1070 R473 NNX/K0839S1100 R473 WYN W18 NLG/K0837S1130 W18 TAMOT/N0452F370 B330 BIGEX A461 AVMUP W16 TADEL
Aircraft A321/M-SDE3FGHIRWY/LB1

Departure

Time 2026-05-07 02:56
Airport Beijing Capital International Airport (ZBAA)

Arrival

Time N/A
Airport Ninoy Aquino International Airport (RPLL)
Time Latitude Longitude Altitude Speed Heading
2026-05-07 02:18 40.07131 116.59008 123 ft 0 kts 83°
2026-05-07 02:43 40.07131 116.59006 123 ft 1 kts 83°
2026-05-07 02:43 40.07128 116.58980 123 ft 2 kts 83°
2026-05-07 02:43 40.07127 116.58968 123 ft 1 kts 83°
2026-05-07 02:44 40.07126 116.58956 123 ft 1 kts 54°
2026-05-07 02:44 40.07114 116.58948 123 ft 1 kts 359°
2026-05-07 02:44 40.07108 116.58948 123 ft 1 kts 352°
2026-05-07 02:44 40.07106 116.58949 123 ft 0 kts 353°
2026-05-07 02:47 40.07107 116.58949 123 ft 0 kts 353°
2026-05-07 02:47 40.07114 116.58948 123 ft 1 kts 353°
2026-05-07 02:47 40.07126 116.58946 123 ft 2 kts 353°
2026-05-07 02:48 40.07138 116.58944 123 ft 2 kts 354°
2026-05-07 02:48 40.07175 116.58939 123 ft 5 kts 353°
2026-05-07 02:48 40.07217 116.58932 123 ft 7 kts 353°
2026-05-07 02:48 40.07254 116.58926 123 ft 8 kts 353°
2026-05-07 02:49 40.07334 116.58933 123 ft 9 kts 43°
2026-05-07 02:49 40.07350 116.58985 123 ft 9 kts 80°
2026-05-07 02:49 40.07360 116.59075 123 ft 10 kts 83°
2026-05-07 02:49 40.07370 116.59177 123 ft 12 kts 83°
2026-05-07 02:50 40.07383 116.59332 123 ft 13 kts 83°
2026-05-07 02:50 40.07390 116.59435 123 ft 10 kts 104°
2026-05-07 02:50 40.07358 116.59481 123 ft 10 kts 151°
2026-05-07 02:50 40.07284 116.59504 123 ft 11 kts 173°
2026-05-07 02:51 40.07166 116.59523 123 ft 13 kts 173°
2026-05-07 02:51 40.07099 116.59534 123 ft 15 kts 173°
2026-05-07 02:51 40.06929 116.59560 123 ft 20 kts 173°
2026-05-07 02:51 40.06836 116.59574 123 ft 19 kts 174°
2026-05-07 02:52 40.06656 116.59602 123 ft 19 kts 173°
2026-05-07 02:52 40.06567 116.59617 123 ft 19 kts 174°
2026-05-07 02:52 40.06392 116.59644 123 ft 18 kts 173°
2026-05-07 02:52 40.06305 116.59657 123 ft 18 kts 173°
2026-05-07 02:53 40.06135 116.59684 123 ft 18 kts 173°
2026-05-07 02:53 40.06051 116.59697 123 ft 18 kts 173°
2026-05-07 02:53 40.05925 116.59717 123 ft 17 kts 173°
2026-05-07 02:53 40.05803 116.59736 123 ft 17 kts 173°
2026-05-07 02:54 40.05637 116.59762 123 ft 17 kts 174°
2026-05-07 02:54 40.05568 116.59772 123 ft 11 kts 173°
2026-05-07 02:54 40.05480 116.59797 123 ft 8 kts 134°
2026-05-07 02:54 40.05472 116.59837 123 ft 6 kts 89°
2026-05-07 02:55 40.05487 116.59895 123 ft 7 kts 56°
2026-05-07 02:55 40.05524 116.59943 123 ft 7 kts 41°
2026-05-07 02:55 40.05586 116.60000 123 ft 8 kts 12°
2026-05-07 02:55 40.05671 116.59992 123 ft 26 kts 353°
2026-05-07 02:56 40.05905 116.59956 123 ft 74 kts 353°
2026-05-07 02:56 40.06650 116.59841 123 ft 136 kts 352°
2026-05-07 02:56 40.07744 116.59673 354 ft 164 kts 352°
2026-05-07 02:56 40.08857 116.59508 979 ft 165 kts 354°
2026-05-07 02:57 40.10363 116.59284 1977 ft 161 kts 353°
2026-05-07 02:57 40.11120 116.59160 2319 ft 167 kts 353°
2026-05-07 02:57 40.12760 116.58919 2791 ft 190 kts 353°
2026-05-07 02:57 40.13656 116.58769 3023 ft 202 kts 352°
2026-05-07 02:58 40.15137 116.58516 3342 ft 224 kts 352°
2026-05-07 02:58 40.16718 116.58252 3925 ft 234 kts 353°
2026-05-07 02:58 40.18338 116.57989 4703 ft 236 kts 353°
2026-05-07 02:58 40.19945 116.57625 5477 ft 238 kts 341°
2026-05-07 02:59 40.21500 116.55705 6723 ft 238 kts 301°
2026-05-07 02:59 40.21856 116.54369 7307 ft 241 kts 287°
2026-05-07 02:59 40.21829 116.52145 7987 ft 256 kts 262°
2026-05-07 02:59 40.21040 116.49957 8398 ft 279 kts 243°
2026-05-07 03:00 40.19964 116.47800 8990 ft 286 kts 243°
2026-05-07 03:00 40.18524 116.44905 9911 ft 288 kts 243°
2026-05-07 03:00 40.17810 116.43448 10368 ft 289 kts 243°
2026-05-07 03:00 40.16725 116.41219 11063 ft 290 kts 244°
2026-05-07 03:01 40.15656 116.39010 11693 ft 292 kts 244°
2026-05-07 03:01 40.14563 116.36746 12342 ft 294 kts 244°
2026-05-07 03:01 40.13535 116.34489 12948 ft 294 kts 247°
2026-05-07 03:01 40.12231 116.31344 13796 ft 295 kts 248°
2026-05-07 03:02 40.11583 116.29762 14140 ft 299 kts 248°
2026-05-07 03:02 40.10583 116.27312 14412 ft 313 kts 248°
2026-05-07 03:02 40.09536 116.24760 14670 ft 327 kts 248°
2026-05-07 03:02 40.08435 116.22089 14927 ft 340 kts 247°
2026-05-07 03:03 40.06910 116.18398 15266 ft 357 kts 247°
2026-05-07 03:03 40.06117 116.16485 15496 ft 362 kts 247°
2026-05-07 03:03 40.04912 116.13587 15984 ft 366 kts 246°
2026-05-07 03:03 40.03679 116.10628 16620 ft 366 kts 246°
2026-05-07 03:04 40.02465 116.07718 17176 ft 368 kts 247°
2026-05-07 03:04 40.00834 116.03795 17916 ft 368 kts 246°
2026-05-07 03:04 40.00032 116.01869 18248 ft 370 kts 246°
2026-05-07 03:04 39.98802 115.98915 18729 ft 372 kts 246°
2026-05-07 03:05 39.97553 115.95926 19209 ft 374 kts 246°
2026-05-07 03:05 39.96299 115.92915 19669 ft 376 kts 246°
2026-05-07 03:05 39.95055 115.89936 20121 ft 377 kts 246°
2026-05-07 03:05 39.93807 115.86948 20599 ft 378 kts 246°
2026-05-07 03:06 39.92630 115.84137 21006 ft 379 kts 246°
2026-05-07 03:06 39.91399 115.81200 21412 ft 381 kts 246°
2026-05-07 03:06 39.90124 115.78160 21763 ft 384 kts 246°
2026-05-07 03:06 39.88844 115.75106 22168 ft 385 kts 246°
2026-05-07 03:07 39.87111 115.70990 22727 ft 386 kts 246°
2026-05-07 03:07 39.86262 115.68973 22948 ft 388 kts 246°
2026-05-07 03:07 39.84967 115.65890 23296 ft 390 kts 246°
2026-05-07 03:07 39.83667 115.62803 23638 ft 391 kts 246°
2026-05-07 03:08 39.82356 115.59675 23967 ft 393 kts 246°
2026-05-07 03:08 39.81064 115.56586 24301 ft 394 kts 246°
2026-05-07 03:08 39.79760 115.53471 24626 ft 394 kts 247°
2026-05-07 03:08 39.78450 115.50350 24963 ft 394 kts 247°
2026-05-07 03:09 39.77127 115.47196 25260 ft 395 kts 247°
2026-05-07 03:09 39.75820 115.44081 25602 ft 394 kts 248°
2026-05-07 03:09 39.74560 115.40939 25928 ft 392 kts 249°
2026-05-07 03:09 39.73323 115.37804 26173 ft 393 kts 249°
2026-05-07 03:10 39.72084 115.34654 26482 ft 393 kts 248°
2026-05-07 03:10 39.70835 115.31485 26746 ft 394 kts 248°
2026-05-07 03:10 39.69157 115.27249 27085 ft 395 kts 248°
2026-05-07 03:10 39.67917 115.24125 27346 ft 395 kts 248°
2026-05-07 03:11 39.67078 115.22013 27507 ft 395 kts 248°
2026-05-07 03:11 39.65826 115.18864 27840 ft 394 kts 248°
2026-05-07 03:11 39.64140 115.14625 28217 ft 393 kts 248°
2026-05-07 03:11 39.63318 115.12563 28421 ft 392 kts 248°
2026-05-07 03:12 39.62072 115.09444 28769 ft 390 kts 248°
2026-05-07 03:12 39.60819 115.06310 29127 ft 387 kts 248°
2026-05-07 03:12 39.59589 115.03233 29493 ft 384 kts 248°
2026-05-07 03:12 39.57973 114.99196 29922 ft 382 kts 249°
2026-05-07 03:13 39.57156 114.97159 30168 ft 380 kts 248°
2026-05-07 03:13 39.55934 114.94111 30533 ft 377 kts 248°
2026-05-07 03:13 39.54741 114.91145 30849 ft 376 kts 249°
2026-05-07 03:13 39.53540 114.88161 31152 ft 374 kts 249°
2026-05-07 03:14 39.52335 114.85159 31483 ft 372 kts 249°
2026-05-07 03:14 39.51141 114.82194 31716 ft 373 kts 249°
2026-05-07 03:14 39.48770 114.76316 32326 ft 369 kts 249°
2026-05-07 03:15 39.47580 114.73362 32633 ft 367 kts 250°
2026-05-07 03:15 39.46398 114.70443 32830 ft 368 kts 249°
2026-05-07 03:15 39.45221 114.67522 33065 ft 368 kts 250°
2026-05-07 03:15 39.44043 114.64619 33349 ft 366 kts 250°
2026-05-07 03:16 39.42868 114.61717 33568 ft 366 kts 250°
2026-05-07 03:16 39.41286 114.57815 33863 ft 365 kts 250°
2026-05-07 03:16 39.40516 114.55913 33998 ft 365 kts 250°
2026-05-07 03:16 39.39331 114.52992 34192 ft 365 kts 250°
2026-05-07 03:17 39.38160 114.50106 34429 ft 364 kts 250°
2026-05-07 03:17 39.36975 114.47227 34617 ft 365 kts 249°
2026-05-07 03:17 39.34955 114.43596 34798 ft 379 kts 237°
2026-05-07 03:17 39.33717 114.42001 34921 ft 386 kts 233°
2026-05-07 03:18 39.30754 114.39236 35170 ft 401 kts 221°
2026-05-07 03:18 39.28186 114.37698 35366 ft 414 kts 212°
2026-05-07 03:18 39.26356 114.36980 35519 ft 424 kts 206°
2026-05-07 03:18 39.23373 114.36401 35670 ft 442 kts 195°
2026-05-07 03:19 39.20236 114.36537 35759 ft 462 kts 184°
2026-05-07 03:19 39.17043 114.37252 35936 ft 468 kts 181°
2026-05-07 03:19 39.13843 114.38071 36109 ft 470 kts 180°
2026-05-07 03:19 39.10664 114.38918 36249 ft 471 kts 180°
2026-05-07 03:20 39.07445 114.39766 36380 ft 472 kts 180°
2026-05-07 03:20 39.04239 114.40597 36527 ft 472 kts 181°
2026-05-07 03:20 39.01022 114.41418 36672 ft 472 kts 181°
2026-05-07 03:20 38.96712 114.42509 36858 ft 473 kts 181°
2026-05-07 03:21 38.94542 114.43059 36952 ft 473 kts 181°
2026-05-07 03:21 38.91328 114.43871 37159 ft 472 kts 181°
2026-05-07 03:21 38.88093 114.44689 37184 ft 472 kts 181°
2026-05-07 03:22 38.81664 114.46313 37206 ft 472 kts 181°
2026-05-07 03:22 38.74131 114.48218 37207 ft 474 kts 181°
2026-05-07 03:23 38.68779 114.49580 37200 ft 473 kts 181°
2026-05-07 03:23 38.62303 114.51223 37203 ft 471 kts 182°
2026-05-07 03:24 38.55886 114.52846 37194 ft 473 kts 181°
2026-05-07 03:24 38.49444 114.54487 37202 ft 472 kts 182°
2026-05-07 03:25 38.43001 114.56096 37187 ft 468 kts 183°
2026-05-07 03:25 38.36603 114.57526 37198 ft 466 kts 184°
2026-05-07 03:26 38.30202 114.58938 37194 ft 468 kts 184°
2026-05-07 03:26 38.23793 114.60366 37183 ft 467 kts 183°
2026-05-07 03:27 38.17416 114.61795 37193 ft 465 kts 184°
2026-05-07 03:27 38.11075 114.63212 37191 ft 462 kts 184°
2026-05-07 03:28 38.03692 114.64849 37179 ft 463 kts 184°
2026-05-07 03:28 37.98407 114.66022 37182 ft 464 kts 184°
2026-05-07 03:29 37.92035 114.67436 37172 ft 463 kts 184°
2026-05-07 03:29 37.85646 114.68849 37170 ft 462 kts 184°
2026-05-07 03:30 37.78256 114.70486 37170 ft 461 kts 184°
2026-05-07 03:30 37.72996 114.71646 37171 ft 460 kts 184°
2026-05-07 03:31 37.66678 114.73034 37161 ft 462 kts 184°
2026-05-07 03:31 37.59307 114.74657 37170 ft 461 kts 184°
2026-05-07 03:32 37.54067 114.75807 37168 ft 461 kts 184°
2026-05-07 03:32 37.47755 114.77189 37168 ft 460 kts 184°
2026-05-07 03:33 37.41448 114.78563 37170 ft 459 kts 184°
2026-05-07 03:33 37.37283 114.79466 37292 ft 457 kts 183°
2026-05-07 03:33 37.34134 114.80150 37214 ft 458 kts 184°
2026-05-07 03:34 37.28884 114.81286 37176 ft 460 kts 184°
2026-05-07 03:34 37.21578 114.82967 37167 ft 457 kts 183°
2026-05-07 03:35 37.16362 114.84186 37171 ft 459 kts 182°
2026-05-07 03:35 37.10115 114.85641 37168 ft 459 kts 182°
2026-05-07 03:36 37.02788 114.87347 37179 ft 455 kts 182°
2026-05-07 03:36 36.97628 114.88541 37177 ft 456 kts 182°
2026-05-07 03:37 36.91388 114.89981 37177 ft 455 kts 182°
2026-05-07 03:37 36.85147 114.91421 37172 ft 456 kts 182°
2026-05-07 03:38 36.78904 114.92858 37174 ft 455 kts 182°
2026-05-07 03:38 36.72713 114.94283 37174 ft 455 kts 182°
2026-05-07 03:39 36.66503 114.95710 37174 ft 455 kts 182°
2026-05-07 03:39 36.60290 114.97134 37176 ft 453 kts 182°
2026-05-07 03:40 36.54048 114.98556 37177 ft 456 kts 182°
2026-05-07 03:40 36.46824 115.00211 37178 ft 453 kts 181°
2026-05-07 03:41 36.41629 115.01372 37174 ft 452 kts 183°
2026-05-07 03:41 36.35471 115.02176 37168 ft 441 kts 189°
2026-05-07 03:42 36.29413 115.02136 37159 ft 430 kts 195°
2026-05-07 03:42 36.23470 115.01533 37160 ft 430 kts 197°
2026-05-07 03:43 36.17517 115.00922 37161 ft 427 kts 197°
2026-05-07 03:43 36.10613 115.00216 37162 ft 428 kts 197°
2026-05-07 03:44 36.05654 114.99706 37157 ft 428 kts 196°
2026-05-07 03:44 35.99719 114.99102 37158 ft 430 kts 196°
2026-05-07 03:45 35.93757 114.98498 37156 ft 428 kts 196°
2026-05-07 03:45 35.87830 114.97894 37153 ft 430 kts 196°
2026-05-07 03:46 35.81839 114.97284 37154 ft 431 kts 196°
2026-05-07 03:46 35.75864 114.96678 37147 ft 431 kts 196°
2026-05-07 03:47 35.69883 114.96073 37153 ft 431 kts 196°
2026-05-07 03:47 35.63960 114.95477 37147 ft 430 kts 196°
2026-05-07 03:48 35.57941 114.94869 37150 ft 432 kts 196°
2026-05-07 03:48 35.51955 114.94265 37146 ft 432 kts 195°
2026-05-07 03:49 35.44978 114.93564 37145 ft 431 kts 195°
2026-05-07 03:49 35.39983 114.93064 37144 ft 432 kts 195°
2026-05-07 03:50 35.34020 114.92466 37142 ft 432 kts 195°
2026-05-07 03:50 35.27043 114.91771 37143 ft 431 kts 195°
2026-05-07 03:51 35.21066 114.91167 37138 ft 432 kts 195°
2026-05-07 03:51 35.16066 114.90668 37138 ft 432 kts 195°
2026-05-07 03:52 35.10062 114.90070 37138 ft 431 kts 195°
2026-05-07 03:52 35.04094 114.89476 37139 ft 434 kts 195°
2026-05-07 03:53 34.98093 114.88881 37138 ft 433 kts 195°
2026-05-07 03:53 34.92091 114.88284 37127 ft 434 kts 195°
2026-05-07 03:54 34.86010 114.87680 37127 ft 435 kts 194°
2026-05-07 03:54 34.79010 114.86990 37130 ft 435 kts 194°
2026-05-07 03:55 34.73976 114.86493 37132 ft 436 kts 194°
2026-05-07 03:55 34.66914 114.85795 37127 ft 435 kts 194°
2026-05-07 03:56 34.61875 114.85300 37126 ft 436 kts 194°
2026-05-07 03:56 34.55838 114.84709 37122 ft 435 kts 194°
2026-05-07 03:57 34.48793 114.84013 37117 ft 437 kts 194°
2026-05-07 03:57 34.43737 114.83518 37116 ft 436 kts 194°
2026-05-07 03:58 34.37682 114.82926 37116 ft 438 kts 194°
2026-05-07 03:58 34.31615 114.82332 37113 ft 437 kts 193°
2026-05-07 03:59 34.24543 114.81643 37107 ft 438 kts 193°
2026-05-07 03:59 34.19495 114.81150 37108 ft 439 kts 194°
2026-05-07 04:00 34.13378 114.80559 37099 ft 439 kts 193°
2026-05-07 04:00 34.07280 114.79973 37102 ft 441 kts 193°
2026-05-07 04:01 34.01192 114.79393 37104 ft 440 kts 193°
2026-05-07 04:01 33.95079 114.78806 37100 ft 440 kts 193°
2026-05-07 04:02 33.89001 114.78223 37089 ft 440 kts 193°
2026-05-07 04:02 33.82888 114.77634 37095 ft 441 kts 193°
2026-05-07 04:03 33.75773 114.76922 37086 ft 440 kts 193°
2026-05-07 04:03 33.69658 114.76311 37093 ft 441 kts 193°
2026-05-07 04:04 33.64592 114.75838 37078 ft 442 kts 193°
2026-05-07 04:04 33.58461 114.75275 37088 ft 441 kts 193°
2026-05-07 04:05 33.52373 114.74651 37090 ft 440 kts 193°
2026-05-07 04:05 33.45250 114.73921 37081 ft 441 kts 193°
2026-05-07 04:06 33.40136 114.73431 37077 ft 439 kts 193°
2026-05-07 04:06 33.33030 114.72748 37079 ft 441 kts 193°
2026-05-07 04:07 33.27949 114.72258 37074 ft 440 kts 192°
2026-05-07 04:07 33.20818 114.71570 37075 ft 441 kts 192°
2026-05-07 04:08 33.15751 114.71075 37062 ft 441 kts 193°
2026-05-07 04:08 33.09602 114.70467 37070 ft 442 kts 193°
2026-05-07 04:09 33.03464 114.69861 37065 ft 442 kts 193°
2026-05-07 04:09 32.97350 114.69259 37079 ft 442 kts 193°
2026-05-07 04:10 32.91238 114.68656 37068 ft 441 kts 193°
2026-05-07 04:10 32.85111 114.68065 37075 ft 443 kts 193°
2026-05-07 04:11 32.77959 114.67390 37066 ft 442 kts 193°
2026-05-07 04:11 32.72821 114.66908 37067 ft 442 kts 193°
2026-05-07 04:12 32.66692 114.66331 37069 ft 443 kts 193°
2026-05-07 04:12 32.60554 114.65752 37062 ft 442 kts 193°
2026-05-07 04:13 32.54449 114.65176 37063 ft 443 kts 193°
2026-05-07 04:13 32.48297 114.64598 37066 ft 443 kts 193°
2026-05-07 04:14 32.42164 114.64021 37061 ft 443 kts 193°
2026-05-07 04:14 32.35993 114.63438 37058 ft 442 kts 193°
2026-05-07 04:15 32.29858 114.62843 37063 ft 443 kts 193°
2026-05-07 04:15 32.23734 114.62244 37051 ft 442 kts 193°
2026-05-07 04:16 32.17591 114.61647 37055 ft 443 kts 193°
2026-05-07 04:16 32.11469 114.61055 37042 ft 443 kts 193°
2026-05-07 04:17 32.04305 114.60359 37047 ft 442 kts 193°
2026-05-07 04:17 31.99170 114.59862 37050 ft 443 kts 193°
2026-05-07 04:18 31.93052 114.59270 37051 ft 442 kts 193°
2026-05-07 04:18 31.86919 114.58677 37047 ft 443 kts 193°
2026-05-07 04:19 31.80775 114.58084 37048 ft 441 kts 193°
2026-05-07 04:19 31.74643 114.57494 37047 ft 441 kts 193°
2026-05-07 04:20 31.67542 114.56809 37043 ft 441 kts 193°
2026-05-07 04:20 31.62448 114.56319 37040 ft 440 kts 193°
2026-05-07 04:21 31.53259 114.55441 37032 ft 442 kts 193°
2026-05-07 04:21 31.47095 114.54851 37022 ft 447 kts 193°
2026-05-07 04:22 31.39882 114.54163 37023 ft 449 kts 193°
2026-05-07 04:22 31.33629 114.53570 37023 ft 448 kts 193°
2026-05-07 04:23 31.28484 114.53047 37015 ft 445 kts 195°
2026-05-07 04:23 31.22544 114.51446 37017 ft 432 kts 207°
2026-05-07 04:24 31.16180 114.48170 37008 ft 426 kts 213°
2026-05-07 04:24 31.11741 114.45687 37015 ft 426 kts 213°
2026-05-07 04:25 31.06381 114.42698 37006 ft 426 kts 213°
2026-05-07 04:25 31.01050 114.39738 37017 ft 426 kts 213°
2026-05-07 04:26 30.95708 114.36778 37016 ft 426 kts 213°
2026-05-07 04:26 30.89423 114.33363 37015 ft 426 kts 211°
2026-05-07 04:27 30.84012 114.30545 37011 ft 427 kts 211°
2026-05-07 04:27 30.79499 114.28173 37010 ft 426 kts 212°
2026-05-07 04:28 30.74118 114.25246 37014 ft 426 kts 213°
2026-05-07 04:28 30.67885 114.21847 37009 ft 426 kts 212°
2026-05-07 04:29 30.62503 114.18926 37007 ft 426 kts 212°
2026-05-07 04:29 30.58024 114.16496 37012 ft 426 kts 212°
2026-05-07 04:30 30.51796 114.13130 37004 ft 426 kts 212°
2026-05-07 04:30 30.47319 114.10714 37003 ft 426 kts 212°
2026-05-07 04:31 30.41950 114.07816 36996 ft 426 kts 212°
2026-05-07 04:31 30.35659 114.04426 36997 ft 426 kts 212°
2026-05-07 04:32 30.31174 114.02010 36992 ft 426 kts 212°
2026-05-07 04:32 30.25808 113.99124 36994 ft 426 kts 212°
2026-05-07 04:33 30.20438 113.96246 36987 ft 426 kts 212°
2026-05-07 04:33 30.15074 113.93378 36983 ft 425 kts 212°
2026-05-07 04:34 30.09693 113.90499 36976 ft 425 kts 212°
2026-05-07 04:34 30.04360 113.87652 36975 ft 423 kts 212°
2026-05-07 04:35 29.98985 113.84781 36978 ft 425 kts 212°
2026-05-07 04:35 29.92633 113.81598 36976 ft 430 kts 208°
2026-05-07 04:36 29.86890 113.79539 36972 ft 436 kts 202°
2026-05-07 04:36 29.80906 113.78210 36964 ft 442 kts 196°
2026-05-07 04:37 29.75754 113.77678 36965 ft 446 kts 192°
2026-05-07 04:37 29.69575 113.77248 36965 ft 446 kts 192°
2026-05-07 04:38 29.63392 113.76817 36976 ft 446 kts 192°
2026-05-07 04:38 29.57187 113.76386 36981 ft 448 kts 192°
2026-05-07 04:39 29.50945 113.75951 36982 ft 448 kts 192°
2026-05-07 04:39 29.44725 113.75520 36986 ft 447 kts 192°
2026-05-07 04:40 29.37470 113.75015 36980 ft 447 kts 192°
2026-05-07 04:40 29.32341 113.74660 36972 ft 446 kts 192°
2026-05-07 04:41 29.25072 113.74165 36964 ft 449 kts 191°
2026-05-07 04:41 29.19862 113.74149 36957 ft 452 kts 187°
2026-05-07 04:42 29.13553 113.74334 36952 ft 454 kts 187°
2026-05-07 04:42 29.07244 113.74519 36955 ft 452 kts 187°
2026-05-07 04:43 28.99928 113.74734 36957 ft 452 kts 187°
2026-05-07 04:43 28.94667 113.74886 36959 ft 451 kts 187°
2026-05-07 04:44 28.88377 113.75068 36955 ft 451 kts 187°
2026-05-07 04:44 28.82139 113.75248 36965 ft 451 kts 187°
2026-05-07 04:45 28.75828 113.75427 36966 ft 450 kts 188°
2026-05-07 04:45 28.69649 113.75194 36963 ft 444 kts 192°
2026-05-07 04:46 28.63498 113.74741 36964 ft 442 kts 192°
2026-05-07 04:46 28.57321 113.74284 36969 ft 443 kts 192°
2026-05-07 04:47 28.51163 113.73832 36980 ft 443 kts 192°
2026-05-07 04:47 28.45021 113.73382 36974 ft 442 kts 192°
2026-05-07 04:48 28.38884 113.72932 36967 ft 442 kts 192°
2026-05-07 04:48 28.32744 113.72483 36963 ft 443 kts 192°
2026-05-07 04:49 28.26607 113.72038 36952 ft 443 kts 192°
2026-05-07 04:49 28.20468 113.71596 36949 ft 442 kts 192°
2026-05-07 04:50 28.14335 113.71143 36945 ft 440 kts 192°
2026-05-07 04:50 28.08191 113.70641 36942 ft 439 kts 193°
2026-05-07 04:51 28.02124 113.70094 36946 ft 438 kts 193°
2026-05-07 04:51 27.96042 113.69549 36942 ft 440 kts 193°
2026-05-07 04:52 27.89918 113.68999 36943 ft 441 kts 193°
2026-05-07 04:52 27.83760 113.68448 36945 ft 440 kts 192°
2026-05-07 04:53 27.77671 113.67907 36942 ft 441 kts 193°
2026-05-07 04:53 27.71538 113.67361 36944 ft 442 kts 192°
2026-05-07 04:54 27.65391 113.66816 36942 ft 443 kts 192°
2026-05-07 04:54 27.59188 113.66597 36948 ft 447 kts 189°
2026-05-07 04:55 27.52969 113.66460 36945 ft 447 kts 189°
2026-05-07 04:55 27.45684 113.66299 36945 ft 447 kts 188°
2026-05-07 04:56 27.40484 113.66183 36946 ft 449 kts 189°
2026-05-07 04:56 27.34276 113.66048 36948 ft 448 kts 189°
2026-05-07 04:57 27.26991 113.65887 36948 ft 448 kts 189°
2026-05-07 04:57 27.21773 113.65939 36943 ft 453 kts 184°
2026-05-07 04:58 27.15455 113.66695 36942 ft 461 kts 178°
2026-05-07 04:58 27.09164 113.68246 36938 ft 466 kts 172°
2026-05-07 04:59 27.02848 113.70123 36934 ft 467 kts 172°
2026-05-07 04:59 26.95510 113.72298 36936 ft 468 kts 172°
2026-05-07 05:00 26.89245 113.74150 36945 ft 466 kts 172°
2026-05-07 05:00 26.82953 113.76000 36953 ft 468 kts 172°
2026-05-07 05:01 26.77681 113.77548 36965 ft 470 kts 171°
2026-05-07 05:01 26.71329 113.79447 36975 ft 472 kts 171°
2026-05-07 05:02 26.65008 113.81439 36981 ft 474 kts 170°
2026-05-07 05:02 26.58654 113.83440 36984 ft 473 kts 170°
2026-05-07 05:03 26.52320 113.85426 36987 ft 474 kts 170°
2026-05-07 05:03 26.45979 113.87344 36995 ft 474 kts 171°
2026-05-07 05:04 26.39584 113.89176 37019 ft 475 kts 171°
2026-05-07 05:04 26.33123 113.91033 37039 ft 477 kts 171°
2026-05-07 05:05 26.25646 113.93188 37071 ft 477 kts 171°
2026-05-07 05:05 26.20266 113.94741 37091 ft 477 kts 171°
2026-05-07 05:06 26.13832 113.96597 37103 ft 478 kts 171°
2026-05-07 05:06 26.06335 113.98755 37114 ft 478 kts 170°
2026-05-07 05:07 26.00940 114.00311 37109 ft 479 kts 170°
2026-05-07 05:07 25.93442 114.02532 37093 ft 480 kts 169°
2026-05-07 05:08 25.88048 114.04142 37071 ft 480 kts 169°
2026-05-07 05:08 25.81575 114.06066 37040 ft 480 kts 169°
2026-05-07 05:09 25.75146 114.07972 37014 ft 480 kts 170°
2026-05-07 05:09 25.68652 114.09895 36999 ft 480 kts 169°
2026-05-07 05:10 25.62187 114.11807 37002 ft 481 kts 169°
2026-05-07 05:10 25.55718 114.13719 37000 ft 482 kts 169°
2026-05-07 05:11 25.48150 114.15955 37001 ft 482 kts 169°
2026-05-07 05:11 25.42747 114.17547 36994 ft 481 kts 169°
2026-05-07 05:12 25.36242 114.19463 36987 ft 482 kts 169°
2026-05-07 05:12 25.29754 114.21373 36984 ft 482 kts 170°
2026-05-07 05:13 25.23281 114.23275 36979 ft 482 kts 169°
2026-05-07 05:13 25.16755 114.25103 36972 ft 481 kts 173°
2026-05-07 05:14 25.09074 114.26086 36963 ft 473 kts 184°
2026-05-07 05:14 25.03635 114.25867 36961 ft 467 kts 192°
2026-05-07 05:15 24.97267 114.24712 36960 ft 463 kts 197°
2026-05-07 05:15 24.90944 114.23308 36968 ft 462 kts 197°
2026-05-07 05:16 24.84603 114.21912 36978 ft 463 kts 197°
2026-05-07 05:16 24.78282 114.20534 36988 ft 464 kts 197°
2026-05-07 05:17 24.70877 114.18928 36991 ft 464 kts 197°
2026-05-07 05:17 24.65600 114.17783 36981 ft 464 kts 197°
2026-05-07 05:18 24.58194 114.16179 36970 ft 464 kts 197°
2026-05-07 05:18 24.52895 114.15031 36966 ft 465 kts 197°
2026-05-07 05:19 24.45497 114.13431 36965 ft 465 kts 197°
2026-05-07 05:19 24.40201 114.12286 36963 ft 465 kts 197°
2026-05-07 05:20 24.33894 114.10821 36961 ft 462 kts 200°
2026-05-07 05:20 24.27690 114.08955 36952 ft 461 kts 201°
2026-05-07 05:21 24.18373 114.06110 36953 ft 462 kts 201°
2026-05-07 05:22 24.12144 114.04216 36970 ft 463 kts 202°
2026-05-07 05:22 24.04907 114.02014 36993 ft 463 kts 201°
2026-05-07 05:23 23.98721 114.00140 37017 ft 463 kts 201°
2026-05-07 05:23 23.93540 113.98568 37017 ft 463 kts 201°
2026-05-07 05:24 23.87328 113.96685 36998 ft 464 kts 201°
2026-05-07 05:24 23.81080 113.94796 36976 ft 463 kts 201°
2026-05-07 05:25 23.74844 113.92911 36959 ft 463 kts 201°
2026-05-07 05:25 23.68620 113.91029 36948 ft 463 kts 201°
2026-05-07 05:26 23.62424 113.89159 36936 ft 464 kts 201°
2026-05-07 05:26 23.56212 113.87286 36926 ft 464 kts 201°
2026-05-07 05:27 23.48935 113.85095 36914 ft 464 kts 201°
2026-05-07 05:27 23.42674 113.83208 36909 ft 465 kts 201°
2026-05-07 05:28 23.37467 113.81638 36907 ft 465 kts 201°
2026-05-07 05:28 23.31231 113.79758 36904 ft 465 kts 201°
2026-05-07 05:29 23.23947 113.77564 36897 ft 465 kts 200°
2026-05-07 05:29 23.18771 113.76009 36890 ft 465 kts 200°
2026-05-07 05:30 23.12521 113.74130 36891 ft 465 kts 200°
2026-05-07 05:30 23.05251 113.71946 36895 ft 465 kts 200°
2026-05-07 05:31 22.98974 113.70063 36898 ft 465 kts 200°
2026-05-07 05:31 22.92736 113.68193 36899 ft 466 kts 200°
2026-05-07 05:32 22.86487 113.66317 36905 ft 466 kts 200°
2026-05-07 05:32 22.81277 113.64728 36910 ft 466 kts 200°
2026-05-07 05:33 22.75026 113.62817 36911 ft 465 kts 200°
2026-05-07 05:33 22.68805 113.60922 36912 ft 465 kts 200°
2026-05-07 05:34 22.62535 113.59199 36902 ft 471 kts 191°
2026-05-07 05:34 22.58106 113.59235 36909 ft 480 kts 175°
2026-05-07 05:34 22.54840 113.60130 36905 ft 485 kts 162°
2026-05-07 05:35 22.49150 113.63970 36909 ft 491 kts 136°
2026-05-07 05:35 22.45127 113.69946 36921 ft 492 kts 120°
2026-05-07 05:36 22.41694 113.76281 36920 ft 491 kts 120°
2026-05-07 05:36 22.38737 113.81552 36922 ft 491 kts 121°
2026-05-07 05:37 22.34851 113.87582 36920 ft 491 kts 128°
2026-05-07 05:37 22.29572 113.94054 36925 ft 492 kts 133°
2026-05-07 05:38 22.25715 113.98558 36924 ft 492 kts 133°
2026-05-07 05:38 22.21097 114.03989 36920 ft 491 kts 132°
2026-05-07 05:39 22.16546 114.09517 36914 ft 491 kts 131°
2026-05-07 05:39 22.11281 114.15945 36912 ft 491 kts 131°
2026-05-07 05:40 22.06759 114.21452 36913 ft 491 kts 131°
2026-05-07 05:40 22.02228 114.26959 36911 ft 491 kts 131°
2026-05-07 05:41 21.97713 114.32440 36912 ft 491 kts 131°
2026-05-07 05:41 21.93945 114.37012 36912 ft 490 kts 131°
2026-05-07 05:42 21.88659 114.43414 36908 ft 490 kts 131°
2026-05-07 05:42 21.84126 114.48897 36906 ft 491 kts 131°
2026-05-07 05:43 21.80337 114.53478 36905 ft 491 kts 131°
2026-05-07 05:43 21.75813 114.58940 36903 ft 491 kts 131°
2026-05-07 05:44 21.71263 114.64429 36904 ft 491 kts 131°
2026-05-07 05:44 21.66719 114.69907 36901 ft 491 kts 132°
2026-05-07 05:45 21.61439 114.76261 36904 ft 491 kts 132°
2026-05-07 05:45 21.57651 114.80816 36904 ft 490 kts 132°
2026-05-07 05:46 21.53103 114.86280 36903 ft 490 kts 132°
2026-05-07 05:46 21.48547 114.91749 36904 ft 491 kts 131°
2026-05-07 05:47 21.44004 114.97196 36903 ft 491 kts 132°
2026-05-07 05:47 21.39453 115.02648 36902 ft 491 kts 132°
2026-05-07 05:48 21.34154 115.08987 36903 ft 491 kts 132°
2026-05-07 05:48 21.29610 115.14418 36904 ft 491 kts 132°
2026-05-07 05:49 21.25805 115.18961 36903 ft 491 kts 132°
2026-05-07 05:49 21.21231 115.24418 36903 ft 491 kts 131°
2026-05-07 05:50 21.16674 115.29848 36904 ft 491 kts 132°
2026-05-07 05:50 21.11350 115.36187 36902 ft 490 kts 131°
2026-05-07 05:51 21.07569 115.40685 36903 ft 489 kts 131°
2026-05-07 05:51 21.03009 115.46101 36901 ft 489 kts 131°
2026-05-07 05:52 20.98474 115.51485 36902 ft 489 kts 131°
2026-05-07 05:52 20.93914 115.56895 36902 ft 489 kts 131°
2026-05-07 05:53 20.89362 115.62288 36902 ft 489 kts 131°
2026-05-07 05:53 20.84828 115.67654 36901 ft 488 kts 132°
2026-05-07 05:54 20.80279 115.73035 36900 ft 487 kts 132°
2026-05-07 05:54 20.75727 115.78410 36899 ft 487 kts 132°
2026-05-07 05:55 20.71195 115.83758 36898 ft 487 kts 132°
2026-05-07 05:55 20.66653 115.89114 36898 ft 487 kts 132°
2026-05-07 05:56 20.62127 115.94445 36899 ft 486 kts 132°
2026-05-07 05:56 20.56819 116.00691 36910 ft 485 kts 132°
2026-05-07 05:57 20.53064 116.05106 36915 ft 484 kts 132°
2026-05-07 05:57 20.48558 116.10398 36915 ft 484 kts 132°
2026-05-07 05:58 20.44016 116.15730 36914 ft 485 kts 132°
2026-05-07 05:58 20.39465 116.21063 36912 ft 485 kts 132°
2026-05-07 05:59 20.34928 116.26378 36912 ft 485 kts 132°
2026-05-07 05:59 20.29671 116.32529 36907 ft 483 kts 132°
2026-05-07 06:00 20.25898 116.36942 36904 ft 483 kts 132°
2026-05-07 06:00 20.21384 116.42213 36904 ft 482 kts 132°
2026-05-07 06:01 20.16856 116.47498 36904 ft 482 kts 132°
2026-05-07 06:01 20.12338 116.52765 36903 ft 482 kts 132°
2026-05-07 06:02 20.07066 116.58911 36904 ft 482 kts 132°
2026-05-07 06:02 20.03313 116.63282 36904 ft 481 kts 132°
2026-05-07 06:03 19.98804 116.68525 36904 ft 481 kts 133°
2026-05-07 06:03 19.93542 116.74622 36904 ft 481 kts 133°
2026-05-07 06:04 19.89763 116.79002 36904 ft 481 kts 133°
2026-05-07 06:04 19.85253 116.84228 36904 ft 480 kts 133°
2026-05-07 06:05 19.79980 116.90334 36905 ft 480 kts 133°
2026-05-07 06:05 19.76241 116.94659 36904 ft 481 kts 133°
2026-05-07 06:06 19.71733 116.99869 36903 ft 480 kts 133°
2026-05-07 06:06 19.67196 117.05109 36893 ft 479 kts 133°
2026-05-07 06:07 19.62719 117.10274 36885 ft 479 kts 133°
2026-05-07 06:07 19.57450 117.16352 36883 ft 478 kts 133°
2026-05-07 06:08 19.53721 117.20648 36882 ft 479 kts 133°
2026-05-07 06:08 19.49208 117.25841 36882 ft 479 kts 133°
2026-05-07 06:09 19.44697 117.31028 36882 ft 479 kts 133°
2026-05-07 06:09 19.40171 117.36230 36882 ft 479 kts 133°
2026-05-07 06:10 19.35650 117.41419 36881 ft 479 kts 133°
2026-05-07 06:10 19.31150 117.46581 36885 ft 478 kts 133°
2026-05-07 06:11 19.26629 117.51760 36885 ft 478 kts 132°
2026-05-07 06:11 19.22125 117.56918 36883 ft 478 kts 132°
2026-05-07 06:12 19.17638 117.62052 36884 ft 478 kts 132°
2026-05-07 06:12 19.13142 117.67194 36880 ft 477 kts 133°
2026-05-07 06:13 19.08632 117.72349 36882 ft 477 kts 133°
2026-05-07 06:13 19.03368 117.78355 36882 ft 477 kts 133°
2026-05-07 06:14 18.99605 117.82638 36883 ft 477 kts 133°
2026-05-07 06:14 18.95108 117.87748 36886 ft 477 kts 133°
2026-05-07 06:15 18.89809 117.93774 36878 ft 477 kts 133°
2026-05-07 06:15 18.86065 117.98032 36872 ft 477 kts 133°
2026-05-07 06:16 18.81546 118.03168 36866 ft 476 kts 133°
2026-05-07 06:16 18.77055 118.08263 36863 ft 476 kts 133°
2026-05-07 06:17 18.72542 118.13381 36865 ft 475 kts 133°
2026-05-07 06:17 18.68046 118.18475 36863 ft 476 kts 133°
2026-05-07 06:18 18.63543 118.23573 36864 ft 476 kts 133°
2026-05-07 06:18 18.58415 118.29375 36862 ft 476 kts 133°
2026-05-07 06:19 18.53893 118.34486 36861 ft 475 kts 133°
2026-05-07 06:19 18.49412 118.39545 36859 ft 475 kts 132°
2026-05-07 06:20 18.45771 118.43654 36859 ft 475 kts 132°
2026-05-07 06:20 18.41270 118.48730 36861 ft 475 kts 132°
2026-05-07 06:21 18.36004 118.54662 36863 ft 475 kts 132°
2026-05-07 06:21 18.32265 118.58871 36864 ft 474 kts 132°
2026-05-07 06:22 18.27015 118.64776 36864 ft 474 kts 132°
2026-05-07 06:22 18.20241 118.72392 36861 ft 474 kts 133°
2026-05-07 06:23 18.15741 118.77445 36860 ft 474 kts 133°
2026-05-07 06:23 18.11999 118.81645 36861 ft 474 kts 133°
2026-05-07 06:24 18.08977 118.85034 36863 ft 474 kts 133°